Location: Newark
(31.5350°N, 35.0986°E)
Time: 11:47:44
(UTC+00:00)

Vanguard 2 - Visible Passes

Search period start: 20 September 2019 00:00
Search period end: 30 September 2019 00:00
Orbit: 554 x 2937 km, 32.9° (Epoch: 19 September)

Date Brightness Start Highest point End Pass type
(mag) Time Alt. Az. Time Alt. Az. Time Alt. Az.
20 Sep 9.1 01:02:59 53° SW 01:06:22 76° SSE 01:14:38 10° E visible
20 Sep 10.3 23:18:20 37° ESE 23:18:20 37° ESE 23:23:59 10° E visible
21 Sep 9.1 01:19:44 44° WSW 01:24:32 85° SSE 01:32:37 10° E visible
21 Sep 9.9 23:35:04 50° ESE 23:35:04 50° ESE 23:42:10 10° E visible
22 Sep 9.0 01:36:28 35° W 01:42:43 88° N 01:50:37 10° E visible
22 Sep 9.6 23:51:47 65° ESE 23:51:47 65° ESE 00:00:16 10° ENE visible
23 Sep 9.0 01:53:11 27° W 02:00:55 83° N 02:08:38 10° E visible
23 Sep 11.2 22:07:05 16° E 22:07:05 16° E 22:08:49 10° E visible
24 Sep 9.4 00:08:28 81° SE 00:08:28 81° SE 00:18:18 10° ENE visible
24 Sep 9.0 02:09:52 21° W 02:19:08 83° N 02:26:39 10° E visible
24 Sep 11.0 22:23:46 23° E 22:23:46 23° E 22:27:07 10° E visible
25 Sep 9.4 00:25:10 79° WSW 00:26:20 89° SSE 00:36:21 10° E visible
25 Sep 9.0 02:26:33 15° W 02:37:21 86° N 02:44:40 10° E visible
25 Sep 10.7 22:40:27 32° E 22:40:27 32° E 22:45:18 10° ENE visible
26 Sep 9.4 00:41:51 64° W 00:44:37 86° N 00:54:24 10° E visible
26 Sep 8.9 02:43:14 10° W 02:55:31 87° SSW 03:02:39 10° ESE visible
26 Sep11.920:55:45ENE20:55:45ENE20:18:12SWvisible
26 Sep 10.4 22:57:08 41° E 22:57:08 41° E 23:03:24 10° ENE visible
27 Sep 9.4 00:58:32 52° W 01:02:55 84° N 01:12:27 10° E visible
27 Sep 8.9 03:01:32 10° WNW 03:13:35 77° SSW 03:20:32 10° ESE visible
27 Sep 11.5 18:33:01 10° S 18:34:01 12° S 18:34:01 12° S visible
27 Sep11.721:12:27ENE21:12:27ENE20:35:27SWvisible
27 Sep 10.1 23:13:50 52° E 23:13:50 52° E 23:21:31 10° E visible
28 Sep 9.4 01:15:14 42° W 01:21:13 85° N 01:30:31 10° E visible
28 Sep 11.4 18:49:02 10° SSW 18:51:19 15° S 18:51:19 15° S visible
28 Sep 11.6 21:29:10 11° ENE 21:29:10 11° ENE 21:29:34 10° ENE visible
28 Sep 9.9 23:30:34 64° ENE 23:30:34 64° ENE 23:39:37 10° E visible
29 Sep 9.3 01:31:58 34° W 01:39:29 89° N 01:48:33 10° E visible
29 Sep 11.4 17:05:24 10° SSE 17:07:14 11° SE 17:07:14 11° SE visible
29 Sep 11.4 19:05:39 10° SSW 19:08:41 18° SSW 19:08:41 18° SSW visible
29 Sep 11.4 21:45:55 17° ENE 21:45:55 17° ENE 21:47:47 10° ENE visible
